Flag for Germany Weather past 2 weeks in Fürth, Bavaria, Germany

Now
64 °F

Broken clouds.


Feels Like: 64 °F
Forecast: 46 / 65 °F
Wind: 9 mph from West

Location: Nuernberg

Current Time: Aug 23, 2014 at 5:26:34 PM

Latest Report: Aug 23, 2014 at 4:50 PM


Visibility: N/A

Pressure: 29.95 "Hg

Humidity: 56%

Dew point: 48 °F

Location of FürthLocation

Historic Weather in Fürth — Graph

°F

Fürth temperature yesterday

Maximum temperature yesterday: 68 °F (at 4:50 PM)
Minimum temperature yesterday: 46 °F (at 5:20 AM)
Average temperature yesterday: 57 °F

Past Weeks' High & Low Weather Summary

 TemperatureHumidityPressure
High84 °F (Aug 10, 2:20 PM)100% (Aug 10, 11:50 PM)30.12 "Hg (Aug 10, 11:50 PM)
Low46 °F (Aug 19, 6:50 AM)35% (Aug 10, 4:50 PM)29.68 "Hg (Aug 13, 2:50 PM)
Average61 °F73%29.94 "Hg
* Reported Aug 8 4:20 PM — Aug 23 4:20 PM, Fürth, Weather by CustomWeather, © 2014

Note: Actual official high and low records may vary slightly from our data, if they occured in-between our weather recording intervals... More about our weather records

Advertising

Fürth weather history for previous 24 hours

 ConditionsComfort  
Time TempWeatherWind HumidityBarometerVisibility
4:20 PM
Aug 23
63 °FPartly sunny.5 mph73%29.95 "HgN/A
3:50 PM61 °FPartly sunny.5 mph72%29.95 "HgN/A
3:20 PM59 °FBroken clouds.7 mph82%29.95 "HgN/A
2:50 PM63 °FPartly sunny.12 mph64%29.95 "HgN/A
2:20 PM63 °FPartly sunny.2 mph64%29.95 "HgN/A
1:50 PM61 °FScattered clouds.8 mph72%29.95 "HgN/A
1:20 PM63 °FScattered clouds.9 mph59%29.95 "HgN/A
12:50 PM64 °FScattered clouds.10 mph60%29.98 "HgN/A
12:20 PM63 °FScattered clouds.8 mph59%29.98 "HgN/A
11:50 AM64 °FScattered clouds.7 mph60%29.98 "HgN/A
11:20 AM63 °FScattered clouds.6 mph59%29.95 "HgN/A
10:50 AM61 °FScattered clouds.5 mph63%29.98 "HgN/A
10:20 AM61 °FScattered clouds.2 mph68%29.98 "HgN/A
9:50 AM57 °FPassing clouds.3 mph72%29.95 "HgN/A
9:20 AM55 °FPassing clouds.3 mph82%29.95 "HgN/A
8:50 AM54 °FSunny.5 mph88%29.95 "Hg10 mi
8:20 AM54 °FSunny.2 mph82%29.98 "Hg10 mi
7:50 AM50 °FSunny.3 mph94%29.98 "Hg10 mi
7:20 AM50 °FSunny.3 mph88%29.98 "Hg10 mi
6:50 AM48 °FClear.5 mph94%29.98 "Hg10 mi
6:20 AM48 °FClear.5 mph94%29.98 "Hg10 mi
5:50 AM48 °FPassing clouds.3 mph87%29.95 "HgN/A
5:20 AM48 °FPassing clouds.3 mph87%29.95 "HgN/A
4:50 AM48 °FClear.2 mph87%29.95 "Hg10 mi
4:20 AM48 °FClear.5 mph87%29.95 "Hg10 mi
3:50 AM46 °FClear.6 mph93%29.95 "Hg10 mi
3:20 AM48 °FClear.5 mph87%29.95 "Hg10 mi
2:50 AM48 °FClear.5 mph87%29.95 "Hg10 mi
2:20 AM48 °FClear.5 mph87%29.98 "Hg10 mi
1:50 AM50 °FClear.3 mph82%29.98 "Hg10 mi
1:20 AM50 °FClear.5 mph88%29.98 "Hg10 mi
12:50 AM52 °FClear.3 mph82%29.98 "Hg10 mi
12:20 AM52 °FClear.2 mph82%29.98 "Hg10 mi
11:50 PM
Aug 22
54 °FClear.2 mph77%29.98 "Hg10 mi
11:20 PM55 °FClear.1 mph72%29.98 "Hg10 mi
10:50 PM55 °FClear.2 mph72%29.98 "Hg10 mi
10:20 PM57 °FClear.1 mph67%29.98 "Hg10 mi
9:50 PM57 °FClear.1 mph67%29.98 "Hg10 mi
9:20 PM59 °FClear.1 mph59%29.98 "Hg10 mi
8:50 PM61 °FSunny.1 mph55%29.98 "Hg10 mi
8:20 PM63 °FPassing clouds.6 mph52%29.95 "HgN/A
7:50 PM64 °FSunny.5 mph49%29.95 "Hg10 mi
7:20 PM64 °FSunny.8 mph46%29.95 "Hg10 mi
6:50 PM66 °FPassing clouds.8 mph43%29.95 "HgN/A
6:20 PM66 °FPassing clouds.9 mph43%29.95 "HgN/A
5:50 PM66 °FPassing clouds.10 mph40%29.95 "HgN/A
5:20 PM66 °FSunny.8 mph37%29.95 "Hg10 mi
Weather by CustomWeather, © 2014

See weather overviewHow to use our weather pages